Location: Proctor
(47.8934°N, 114.3048°W)
Time: 02:15:44
(UTC+00:00)

AO-92 - Visible Passes

Search period start: 30 June 2022 00:00
Search period end: 10 July 2022 00:00
Orbit: 472 x 481 km, 97.4° (Epoch: 29 June)

Date Brightness Start Highest point End Pass type
(mag) Time Alt. Az. Time Alt. Az. Time Alt. Az.
30 Jun ? 04:30:23 10° ESE 04:32:46 17° ENE 04:35:09 10° NNE visible
30 Jun ? 06:03:56 21° SSW 06:05:47 38° W 06:09:10 10° NNW visible
01 Jul ? 05:36:58 24° S 05:39:02 84° WSW 05:42:38 10° NNW visible
02 Jul ? 05:10:01 18° SE 05:12:23 45° ENE 05:15:49 10° N visible
02 Jul ? 06:44:13 11° WSW 06:45:56 14° W 06:47:53 10° WNW visible
03 Jul ? 04:43:03 10° ESE 04:45:49 23° ENE 04:48:41 10° NNE visible
03 Jul ? 06:17:15 18° SW 06:19:01 27° W 06:22:06 10° NW visible
04 Jul ? 04:17:44 10° E 04:19:21 13° ENE 04:20:57 10° NE visible
04 Jul ? 05:50:17 24° S 05:52:11 57° W 05:55:43 10° NNW visible
05 Jul ? 05:23:18 22° SSE 05:25:27 66° ENE 05:29:00 10° N visible
06 Jul ? 04:56:18 14° SE 04:58:48 31° ENE 05:02:00 10° N visible
06 Jul ? 06:30:30 15° SW 06:32:10 20° W 06:34:51 10° NW visible
07 Jul ? 04:29:53 10° ESE 04:32:15 17° ENE 04:34:38 10° NNE visible
07 Jul ? 06:03:30 23° SSW 06:05:16 39° W 06:08:39 10° NNW visible
08 Jul ? 05:36:30 25° S 05:38:27 86° WSW 05:42:03 10° NNW visible
09 Jul ? 05:09:29 19° SE 05:11:44 44° ENE 05:15:09 10° N visible
09 Jul ? 06:43:41 11° WSW 06:45:16 14° W 06:47:17 10° NW visible
